Location: Newark
(52.2583°N, 7.1190°W)
Time: 16:20:51
(UTC+00:00)

S-56A Canister/Altair - Pass Details

Date: 23 November 2019
Orbit: 633 x 2499 km, 38.9° (Epoch: 06 December)

Event Time Altitude Azimuth Distance (km) Brightness Sun altitude
Rises 17:13:38 0° 240° (WSW) 5,513 14.4 -7.1°
Reaches altitude 10° 17:18:07 10° 232° (SW) 4,219 12.8 -7.7°
Maximum altitude 17:27:02 32° 176° (S) 2,263 10.1 -9.0°
Drops below altitude 10° 17:33:25 10° 116° (ESE) 2,974 10.1 -9.9°
Enters shadow 17:35:07 - 109° (ESE) 3,439 10.4 -10.2°
